FW9372 Weather Reports


Display with metric or nautical units.
time (UTC)temp
F
wind
direction
speed
MPH
gust
MPH
rain 1hr
in
rain 24hr
in
rain mn
in
humidity
%
barometer
mb
20260505054611 67 0 0.0 4.0 0.00 0.09 0.00 60 1005.5
20260505053100 67 0 0.0 8.0 0.00 0.09 0.00 60 1005.4
20260505051555 67 0 0.0 4.0 0.00 0.09 0.00 61 1005.5
20260505041606 69 0 0.0 0.0 0.00 0.12 0.09 59 1005.4
20260505040100 69 0 0.0 1.0 0.00 0.12 0.09 58 1005.6
20260505034559 69 0 0.0 2.0 0.00 0.12 0.09 58 1005.8
20260505033058 68 0 0.0 0.0 0.00 0.12 0.09 58 1005.9
20260505031605 68 0 0.0 0.0 0.00 0.12 0.09 59 1006.0
20260505030113 69 0 0.0 0.0 0.00 0.12 0.09 56 1005.8
20260505024605 70 0 0.0 0.0 0.00 0.12 0.09 55 1005.5
20260505023059 71 0 0.0 7.0 0.00 0.12 0.09 53 1005.3
20260505021600 71 0 0.0 1.0 0.00 0.12 0.09 54 1004.9
20260505020054 71 0 0.0 0.0 0.00 0.12 0.09 57 1004.7
20260505014609 71 0 0.0 0.0 0.00 0.12 0.09 54 1004.5
20260505013055 72 0 0.0 0.0 0.00 0.12 0.09 53 1004.4
20260505011606 73 0 0.0 4.0 0.00 0.12 0.09 51 1004.2
20260505010057 73 242 1.0 8.0 0.00 0.12 0.09 50 1003.8
20260505004559 73 0 0.0 7.0 0.00 0.12 0.09 50 1003.5
20260505003056 74 219 0.0 4.0 0.00 0.12 0.09 49 1003.6
20260505001554 74 0 0.0 12.0 0.00 0.12 0.09 48 1003.4
20260505000115 75 208 0.0 5.0 0.00 0.12 0.09 48 1003.7
20260504234555 75 212 0.0 9.0 0.00 0.12 0.09 48 1003.9
20260504233108 75 0 0.0 9.0 0.00 0.12 0.09 47 1004.4
20260504231555 75 221 0.0 13.0 0.00 0.12 0.09 47 1004.6
20260504230057 76 193 1.0 9.0 0.00 0.12 0.09 48 1004.9
20260504224604 76 226 0.0 7.0 0.00 0.12 0.09 47 1005.4
20260504223134 76 0 0.0 4.0 0.00 0.12 0.09 49 1005.7
20260504221556 77 0 1.0 6.0 0.00 0.12 0.09 48 1005.8
20260504220058 77 0 0.0 6.0 0.00 0.12 0.09 47 1006.0
20260504214557 77 0 0.0 13.0 0.00 0.12 0.09 47 1006.0
20260504213104 77 0 0.0 13.0 0.00 0.12 0.09 49 1005.9
20260504211555 77 0 0.0 9.0 0.00 0.12 0.09 50 1005.8
20260504210101 79 275 0.0 8.0 0.00 0.12 0.09 48 1005.9
20260504204557 78 232 3.0 13.0 0.00 0.12 0.09 48 1006.0
20260504203110 78 229 4.0 17.0 0.00 0.12 0.09 47 1006.1
20260504201601 78 207 0.0 16.0 0.00 0.12 0.09 49 1006.1
20260504200120 78 234 7.0 16.0 0.00 0.12 0.09 47 1006.1
20260504194601 78 242 1.0 16.0 0.00 0.12 0.09 48 1006.2
20260504193057 78 0 4.0 15.0 0.00 0.12 0.09 50 1006.5
20260504191600 78 249 8.0 19.0 0.00 0.12 0.09 49 1006.7
20260504190055 77 143 4.0 17.0 0.00 0.12 0.09 54 1006.9
20260504184559 77 0 0.0 7.0 0.00 0.12 0.09 54 1007.2
20260504183057 76 218 1.0 9.0 0.00 0.12 0.09 54 1007.4
20260504181600 75 290 3.0 15.0 0.00 0.12 0.09 55 1007.5
20260504180058 75 0 2.0 11.0 0.00 0.12 0.09 53 1007.4
20260504174611 75 184 4.0 12.0 0.00 0.12 0.09 54 1007.4
20260504173100 75 237 3.0 12.0 0.00 0.12 0.09 53 1007.7
20260504171556 74 0 1.0 7.0 0.00 0.12 0.09 57 1007.6
20260504160108 70 0 4.0 14.0 0.00 0.12 0.09 61 1008.0
20260504150108 67 255 1.0 11.0 0.00 0.12 0.09 65 1008.4
20260504090107 48 0 0.0 0.0 0.00 0.12 0.08 97 1010.5
20260504081608 48 0 0.0 0.0 0.00 0.12 0.08 97 1008.6